QPF
0.13 0.18 0.21 0.34 0.52 0.59 0.58 0.48 0.36 0.30 0.28 0.31 0.25 0.17 0.13 0.10 0.09 0.08 0.05 0.04 0.04 0.03 0.03 0.03 0.02 0.02 0.02 0.02 0.02 0.01 0.01 0.01 0.01 0.00 0.00 0.00 0.00 0.00 0.00 0.00 0.00 0.00 0.00
0.12 0.18 0.18 0.26 0.40 0.52 0.54 0.49 0.42 0.35 0.34 0.36 0.34 0.25 0.18 0.15 0.12 0.10 0.08 0.06 0.05 0.04 0.04 0.04 0.04 0.04 0.05 0.05 0.04 0.03 0.03 0.02 0.02 0.01 0.01 0.01 0.00 0.00 0.00 0.00 0.00 0.00 0.00
0.11 0.14 0.15 0.19 0.28 0.37 0.47 0.44 0.41 0.35 0.31 0.37 0.44 0.41 0.32 0.24 0.17 0.11 0.10 0.09 0.09 0.09 0.07 0.07 0.06 0.05 0.06 0.06 0.06 0.05 0.04 0.03 0.02 0.02 0.02 0.02 0.01 0.00 0.00 0.00 0.00 0.00 0.00
0.09 0.11 0.11 0.12 0.18 0.23 0.33 0.39 0.43 0.42 0.32 0.32 0.39 0.45 0.43 0.30 0.21 0.17 0.15 0.15 0.15 0.14 0.14 0.12 0.11 0.08 0.06 0.06 0.07 0.07 0.06 0.05 0.04 0.04 0.03 0.03 0.02 0.02 0.01 0.00 0.00 0.00 0.00
0.08 0.08 0.06 0.06 0.09 0.15 0.23 0.31 0.35 0.45 0.40 0.32 0.35 0.43 0.49 0.47 0.37 0.29 0.25 0.22 0.20 0.19 0.17 0.15 0.15 0.13 0.11 0.08 0.07 0.07 0.07 0.06 0.05 0.04 0.03 0.02 0.02 0.02 0.02 0.01 0.00 0.00 0.00
0.06 0.06 0.04 0.04 0.05 0.08 0.12 0.18 0.23 0.33 0.41 0.40 0.41 0.43 0.47 0.52 0.49 0.39 0.33 0.29 0.24 0.22 0.21 0.20 0.18 0.16 0.14 0.12 0.11 0.09 0.07 0.05 0.04 0.04 0.03 0.03 0.02 0.02 0.02 0.02 0.01 0.01 0.00
0.04 0.04 0.04 0.04 0.05 0.05 0.06 0.09 0.12 0.17 0.29 0.37 0.40 0.43 0.43 0.45 0.49 0.48 0.42 0.38 0.33 0.28 0.25 0.24 0.22 0.20 0.18 0.14 0.12 0.10 0.08 0.07 0.06 0.06 0.05 0.04 0.04 0.04 0.04 0.04 0.03 0.02 0.01
0.02 0.03 0.04 0.04 0.04 0.04 0.04 0.05 0.07 0.10 0.15 0.24 0.28 0.32 0.37 0.42 0.43 0.43 0.43 0.41 0.36 0.29 0.25 0.26 0.27 0.26 0.24 0.20 0.17 0.15 0.12 0.10 0.09 0.08 0.07 0.06 0.05 0.06 0.06 0.06 0.06 0.05 0.03
0.02 0.02 0.03 0.04 0.03 0.03 0.02 0.02 0.03 0.05 0.08 0.12 0.18 0.23 0.28 0.32 0.35 0.34 0.31 0.31 0.29 0.24 0.21 0.20 0.23 0.22 0.20 0.19 0.17 0.15 0.14 0.12 0.10 0.08 0.07 0.06 0.05 0.05 0.06 0.06 0.06 0.05 0.04
0.02 0.02 0.02 0.02 0.02 0.01 0.01 0.01 0.01 0.03 0.05 0.07 0.12 0.16 0.20 0.21 0.24 0.27 0.25 0.21 0.21 0.20 0.19 0.19 0.18 0.18 0.17 0.16 0.15 0.14 0.13 0.12 0.11 0.09 0.07 0.06 0.04 0.04 0.04 0.04 0.04 0.04 0.04
0.02 0.02 0.02 0.02 0.01 0.01 0.01 0.01 0.01 0.02 0.03 0.04 0.08 0.09 0.12 0.12 0.14 0.16 0.17 0.16 0.14 0.14 0.14 0.13 0.14 0.14 0.14 0.12 0.12 0.12 0.12 0.11 0.09 0.08 0.08 0.07 0.06 0.05 0.04 0.04 0.03 0.03 0.03
0.02 0.02 0.01 0.01 0.01 0.01 0.01 0.01 0.01 0.01 0.02 0.03 0.04 0.05 0.08 0.08 0.07 0.09 0.10 0.09 0.09 0.09 0.10 0.09 0.10 0.11 0.10 0.10 0.09 0.09 0.09 0.08 0.08 0.07 0.05 0.05 0.05 0.04 0.04 0.03 0.03 0.03 0.02
0.02 0.01 0.01 0.01 0.01 0.01 0.01 0.01 0.01 0.01 0.01 0.02 0.02 0.03 0.05 0.06 0.06 0.07 0.07 0.05 0.04 0.04 0.05 0.05 0.06 0.06 0.06 0.06 0.05 0.05 0.05 0.05 0.05 0.04 0.04 0.03 0.03 0.04 0.03 0.03 0.02 0.02 0.02
0.01 0.01 0.01 0.01 0.02 0.02 0.01 0.01 0.01 0.01 0.01 0.01 0.02 0.02 0.04 0.06 0.06 0.04 0.04 0.03 0.03 0.02 0.02 0.03 0.03 0.04 0.04 0.04 0.03 0.03 0.03 0.03 0.02 0.02 0.02 0.01 0.01 0.02 0.02 0.02 0.02 0.02 0.02
0.01 0.01 0.01 0.01 0.01 0.02 0.01 0.01 0.01 0.01 0.01 0.01 0.01 0.02 0.03 0.05 0.04 0.03 0.03 0.02 0.02 0.02 0.02 0.02 0.03 0.03 0.03 0.03 0.03 0.02 0.02 0.02 0.02 0.02 0.01 0.01 0.01 0.01 0.01 0.01 0.01 0.01 0.01
0.01 0.01 0.01 0.00 0.00 0.01 0.00 0.00 0.00 0.00 0.01 0.01 0.01 0.02 0.03 0.04 0.03 0.03 0.03 0.03 0.02 0.02 0.02 0.02 0.02 0.02 0.02 0.02 0.02 0.02 0.02 0.02 0.02 0.01 0.01 0.01 0.01 0.01 0.00 0.01 0.01 0.01 0.01
0.00 0.00 0.00 0.00 0.00 0.00 0.00 0.00 0.00 0.00 0.00 0.01 0.01 0.03 0.03 0.04 0.04 0.02 0.02 0.03 0.03 0.04 0.04 0.04 0.03 0.02 0.02 0.02 0.02 0.02 0.02 0.02 0.02 0.01 0.01 0.01 0.01 0.00 0.00 0.00 0.00 0.00 0.00
0.00 0.00 0.00 0.00 0.00 0.00 0.00 0.00 0.00 0.00 0.01 0.01 0.02 0.02 0.01 0.02 0.02 0.02 0.02 0.02 0.02 0.03 0.03 0.03 0.03 0.03 0.02 0.03 0.03 0.03 0.02 0.02 0.02 0.02 0.01 0.01 0.01 0.01 0.01 0.00 0.00 0.00 0.00
0.00 0.00 0.00 0.00 0.01 0.01 0.00 0.00 0.00 0.01 0.01 0.01 0.01 0.01 0.01 0.01 0.01 0.02 0.01 0.02 0.02 0.02 0.02 0.02 0.02 0.03 0.02 0.02 0.02 0.02 0.02 0.02 0.02 0.02 0.01 0.01 0.01 0.01 0.01 0.01 0.00 0.00 0.01
0.01 0.01 0.00 0.00 0.01 0.01 0.01 0.00 0.00 0.01 0.01 0.01 0.00 0.00 0.01 0.02 0.02 0.03 0.02 0.02 0.03 0.03 0.03 0.03 0.03 0.04 0.04 0.04 0.03 0.03 0.02 0.02 0.02 0.02 0.01 0.01 0.01 0.01 0.01 0.01 0.01 0.01 0.01
0.01 0.01 0.01 0.01 0.01 0.01 0.01 0.01 0.01 0.01 0.01 0.01 0.01 0.01 0.02 0.03 0.03 0.03 0.02 0.02 0.03 0.03 0.03 0.04 0.05 0.04 0.05 0.05 0.04 0.03 0.03 0.02 0.01 0.01 0.01 0.01 0.01 0.01 0.01 0.00 0.00 0.00 0.00
0.02 0.02 0.02 0.02 0.01 0.01 0.01 0.01 0.01 0.02 0.02 0.01 0.02 0.03 0.03 0.04 0.05 0.04 0.03 0.03 0.03 0.04 0.04 0.04 0.05 0.05 0.06 0.06 0.05 0.04 0.03 0.02 0.01 0.00 0.00 0.00 0.01 0.01 0.01 0.01 0.00 0.00 0.00
0.03 0.02 0.02 0.02 0.02 0.02 0.02 0.02 0.02 0.02 0.02 0.02 0.02 0.03 0.04 0.05 0.06 0.03 0.03 0.03 0.03 0.03 0.04 0.04 0.04 0.04 0.06 0.07 0.06 0.05 0.04 0.02 0.01 0.01 0.01 0.01 0.01 0.01 0.01 0.01 0.00 0.00 0.00
0.03 0.03 0.02 0.02 0.02 0.02 0.02 0.02 0.02 0.03 0.02 0.02 0.02 0.03 0.04 0.04 0.05 0.04 0.03 0.03 0.03 0.03 0.04 0.04 0.04 0.04 0.05 0.07 0.06 0.05 0.03 0.03 0.02 0.02 0.02 0.02 0.01 0.01 0.01 0.00 0.00 0.00 0.00
0.02 0.04 0.03 0.03 0.02 0.02 0.03 0.03 0.03 0.04 0.04 0.03 0.03 0.03 0.03 0.04 0.03 0.03 0.03 0.04 0.04 0.05 0.05 0.05 0.05 0.05 0.05 0.05 0.05 0.04 0.04 0.03 0.03 0.03 0.02 0.02 0.01 0.01 0.01 0.01 0.00 0.00 0.00
0.01 0.02 0.04 0.04 0.03 0.03 0.03 0.03 0.03 0.03 0.04 0.04 0.04 0.03 0.03 0.03 0.03 0.03 0.02 0.04 0.04 0.05 0.07 0.06 0.06 0.05 0.04 0.04 0.05 0.04 0.04 0.04 0.03 0.03 0.02 0.01 0.01 0.01 0.01 0.01 0.01 0.01 0.01
MSLP
1005.94 1006.09 1006.10 1005.97 1005.75 1005.51 1005.34 1005.33 1005.55 1006.02 1006.74 1007.65 1008.67 1009.71 1010.69 1011.56 1012.29 1012.88 1013.37 1013.80 1014.22 1014.68 1015.17 1015.71 1016.27 1016.82 1017.35 1017.81 1018.21 1018.54 1018.82 1019.04 1019.23 1019.38 1019.49 1019.54 1019.54 1019.47 1019.35 1019.19 1019.03 1018.89 1018.80
1005.41 1005.58 1005.64 1005.60 1005.48 1005.36 1005.29 1005.36 1005.62 1006.09 1006.77 1007.60 1008.54 1009.50 1010.42 1011.26 1011.98 1012.59 1013.12 1013.61 1014.08 1014.56 1015.07 1015.60 1016.13 1016.65 1017.13 1017.57 1017.96 1018.30 1018.60 1018.87 1019.10 1019.30 1019.43 1019.50 1019.50 1019.41 1019.26 1019.07 1018.88 1018.72 1018.62
1005.08 1005.22 1005.30 1005.31 1005.28 1005.25 1005.28 1005.42 1005.72 1006.20 1006.83 1007.60 1008.44 1009.32 1010.17 1010.96 1011.67 1012.30 1012.88 1013.41 1013.92 1014.44 1014.96 1015.47 1015.97 1016.45 1016.89 1017.30 1017.67 1018.02 1018.35 1018.66 1018.95 1019.19 1019.36 1019.46 1019.47 1019.39 1019.24 1019.04 1018.84 1018.68 1018.59
1004.96 1005.05 1005.11 1005.15 1005.17 1005.22 1005.32 1005.52 1005.85 1006.32 1006.91 1007.60 1008.36 1009.14 1009.92 1010.66 1011.36 1012.00 1012.61 1013.19 1013.74 1014.28 1014.81 1015.32 1015.79 1016.23 1016.64 1017.03 1017.39 1017.75 1018.11 1018.46 1018.79 1019.08 1019.30 1019.44 1019.48 1019.41 1019.27 1019.09 1018.90 1018.75 1018.68
1005.05 1005.08 1005.10 1005.13 1005.17 1005.26 1005.41 1005.65 1005.99 1006.44 1006.98 1007.59 1008.26 1008.96 1009.67 1010.36 1011.03 1011.68 1012.32 1012.93 1013.52 1014.10 1014.64 1015.14 1015.60 1016.03 1016.42 1016.79 1017.15 1017.52 1017.91 1018.29 1018.67 1019.00 1019.27 1019.45 1019.52 1019.48 1019.37 1019.21 1019.04 1018.92 1018.86
1005.33 1005.28 1005.25 1005.25 1005.30 1005.40 1005.57 1005.82 1006.15 1006.56 1007.04 1007.58 1008.16 1008.77 1009.40 1010.05 1010.70 1011.35 1012.00 1012.65 1013.28 1013.88 1014.44 1014.96 1015.43 1015.85 1016.24 1016.61 1016.98 1017.37 1017.78 1018.19 1018.60 1018.97 1019.27 1019.48 1019.59 1019.59 1019.51 1019.37 1019.24 1019.13 1019.09
1005.75 1005.64 1005.56 1005.53 1005.56 1005.65 1005.81 1006.04 1006.33 1006.69 1007.10 1007.56 1008.06 1008.59 1009.15 1009.75 1010.37 1011.02 1011.69 1012.36 1013.03 1013.67 1014.26 1014.80 1015.29 1015.73 1016.13 1016.52 1016.91 1017.31 1017.73 1018.17 1018.60 1018.99 1019.31 1019.55 1019.68 1019.72 1019.67 1019.56 1019.45 1019.36 1019.33
1006.26 1006.11 1005.99 1005.93 1005.94 1006.00 1006.14 1006.33 1006.58 1006.87 1007.21 1007.58 1008.00 1008.45 1008.95 1009.50 1010.10 1010.74 1011.42 1012.12 1012.81 1013.49 1014.12 1014.70 1015.22 1015.69 1016.12 1016.52 1016.93 1017.35 1017.78 1018.22 1018.65 1019.05 1019.38 1019.64 1019.79 1019.86 1019.84 1019.76 1019.68 1019.60 1019.56
1006.84 1006.67 1006.54 1006.47 1006.45 1006.49 1006.58 1006.73 1006.91 1007.14 1007.39 1007.69 1008.03 1008.41 1008.85 1009.36 1009.93 1010.56 1011.25 1011.96 1012.68 1013.39 1014.06 1014.68 1015.24 1015.74 1016.20 1016.64 1017.05 1017.48 1017.90 1018.33 1018.75 1019.14 1019.47 1019.73 1019.91 1020.00 1020.01 1019.97 1019.90 1019.82 1019.77
1007.46 1007.31 1007.19 1007.12 1007.09 1007.11 1007.16 1007.25 1007.38 1007.53 1007.71 1007.93 1008.20 1008.52 1008.92 1009.38 1009.93 1010.55 1011.22 1011.94 1012.68 1013.41 1014.11 1014.77 1015.36 1015.90 1016.39 1016.84 1017.26 1017.68 1018.09 1018.50 1018.89 1019.26 1019.58 1019.84 1020.03 1020.15 1020.19 1020.17 1020.12 1020.06 1019.99
1008.14 1008.03 1007.94 1007.88 1007.85 1007.85 1007.88 1007.92 1007.98 1008.07 1008.19 1008.35 1008.56 1008.83 1009.18 1009.62 1010.13 1010.73 1011.40 1012.11 1012.85 1013.59 1014.30 1014.97 1015.60 1016.16 1016.66 1017.12 1017.54 1017.94 1018.33 1018.70 1019.06 1019.40 1019.70 1019.96 1020.16 1020.30 1020.37 1020.40 1020.37 1020.32 1020.24
1008.88 1008.81 1008.76 1008.73 1008.71 1008.70 1008.69 1008.70 1008.72 1008.75 1008.82 1008.94 1009.10 1009.34 1009.66 1010.06 1010.55 1011.12 1011.76 1012.45 1013.17 1013.90 1014.62 1015.29 1015.92 1016.49 1017.00 1017.45 1017.86 1018.24 1018.59 1018.92 1019.24 1019.54 1019.83 1020.08 1020.29 1020.46 1020.57 1020.63 1020.64 1020.60 1020.52
1009.67 1009.64 1009.63 1009.62 1009.60 1009.59 1009.57 1009.54 1009.53 1009.53 1009.57 1009.65 1009.80 1010.01 1010.31 1010.69 1011.15 1011.69 1012.30 1012.95 1013.64 1014.34 1015.03 1015.69 1016.31 1016.87 1017.36 1017.80 1018.19 1018.53 1018.84 1019.13 1019.41 1019.68 1019.95 1020.20 1020.42 1020.62 1020.77 1020.88 1020.92 1020.91 1020.84
1010.49 1010.49 1010.49 1010.49 1010.49 1010.46 1010.42 1010.38 1010.34 1010.33 1010.35 1010.43 1010.56 1010.77 1011.06 1011.42 1011.86 1012.37 1012.94 1013.55 1014.19 1014.85 1015.50 1016.13 1016.72 1017.26 1017.73 1018.15 1018.50 1018.81 1019.08 1019.33 1019.57 1019.81 1020.05 1020.30 1020.54 1020.77 1020.96 1021.11 1021.19 1021.21 1021.17
1011.32 1011.31 1011.31 1011.31 1011.29 1011.25 1011.19 1011.14 1011.09 1011.07 1011.09 1011.17 1011.32 1011.53 1011.82 1012.18 1012.60 1013.08 1013.61 1014.17 1014.77 1015.37 1015.98 1016.56 1017.11 1017.62 1018.06 1018.45 1018.77 1019.05 1019.28 1019.49 1019.70 1019.91 1020.14 1020.38 1020.64 1020.89 1021.12 1021.30 1021.43 1021.48 1021.46
1012.11 1012.07 1012.04 1012.01 1011.96 1011.89 1011.82 1011.74 1011.69 1011.67 1011.70 1011.80 1011.96 1012.20 1012.50 1012.86 1013.28 1013.73 1014.22 1014.75 1015.29 1015.84 1016.40 1016.94 1017.45 1017.92 1018.33 1018.68 1018.98 1019.22 1019.42 1019.60 1019.78 1019.97 1020.19 1020.43 1020.70 1020.97 1021.22 1021.44 1021.60 1021.68 1021.69
1012.85 1012.75 1012.67 1012.58 1012.48 1012.37 1012.26 1012.17 1012.10 1012.09 1012.13 1012.25 1012.44 1012.70 1013.02 1013.40 1013.81 1014.25 1014.72 1015.21 1015.71 1016.22 1016.73 1017.23 1017.70 1018.13 1018.51 1018.84 1019.11 1019.32 1019.50 1019.65 1019.81 1019.99 1020.19 1020.44 1020.70 1020.99 1021.26 1021.51 1021.69 1021.79 1021.81
1013.51 1013.34 1013.18 1013.02 1012.86 1012.69 1012.54 1012.41 1012.33 1012.32 1012.37 1012.51 1012.72 1013.00 1013.35 1013.73 1014.15 1014.59 1015.04 1015.51 1015.98 1016.46 1016.93 1017.40 1017.84 1018.24 1018.60 1018.90 1019.15 1019.34 1019.50 1019.64 1019.79 1019.95 1020.15 1020.39 1020.66 1020.96 1021.24 1021.49 1021.69 1021.81 1021.84
1014.11 1013.85 1013.61 1013.37 1013.13 1012.90 1012.69 1012.53 1012.42 1012.39 1012.45 1012.59 1012.82 1013.12 1013.47 1013.87 1014.30 1014.74 1015.19 1015.64 1016.10 1016.55 1017.00 1017.44 1017.86 1018.24 1018.58 1018.87 1019.10 1019.28 1019.43 1019.57 1019.71 1019.87 1020.07 1020.31 1020.58 1020.87 1021.16 1021.42 1021.62 1021.74 1021.78
1014.67 1014.33 1014.00 1013.68 1013.36 1013.06 1012.79 1012.58 1012.43 1012.37 1012.41 1012.55 1012.78 1013.08 1013.44 1013.84 1014.27 1014.72 1015.16 1015.61 1016.06 1016.51 1016.95 1017.37 1017.78 1018.14 1018.47 1018.74 1018.97 1019.15 1019.30 1019.43 1019.57 1019.73 1019.93 1020.18 1020.45 1020.75 1021.04 1021.30 1021.50 1021.62 1021.66
1015.19 1014.78 1014.38 1013.98 1013.59 1013.22 1012.89 1012.61 1012.43 1012.33 1012.34 1012.46 1012.66 1012.95 1013.30 1013.70 1014.12 1014.56 1015.01 1015.45 1015.90 1016.34 1016.77 1017.19 1017.59 1017.95 1018.26 1018.53 1018.76 1018.94 1019.09 1019.23 1019.38 1019.55 1019.76 1020.01 1020.29 1020.59 1020.88 1021.13 1021.33 1021.45 1021.49
1015.69 1015.22 1014.76 1014.29 1013.83 1013.40 1013.01 1012.69 1012.45 1012.31 1012.28 1012.36 1012.53 1012.79 1013.12 1013.49 1013.90 1014.32 1014.76 1015.20 1015.64 1016.08 1016.50 1016.92 1017.30 1017.66 1017.97 1018.24 1018.47 1018.65 1018.81 1018.96 1019.12 1019.31 1019.53 1019.78 1020.07 1020.37 1020.66 1020.92 1021.11 1021.24 1021.28
1016.15 1015.64 1015.12 1014.60 1014.09 1013.61 1013.17 1012.80 1012.52 1012.33 1012.26 1012.29 1012.42 1012.64 1012.93 1013.27 1013.64 1014.04 1014.46 1014.88 1015.31 1015.74 1016.16 1016.56 1016.95 1017.30 1017.61 1017.88 1018.11 1018.30 1018.47 1018.63 1018.80 1019.00 1019.23 1019.49 1019.78 1020.08 1020.37 1020.62 1020.82 1020.95 1021.00
1016.53 1015.99 1015.43 1014.88 1014.33 1013.81 1013.34 1012.93 1012.61 1012.40 1012.28 1012.27 1012.36 1012.53 1012.77 1013.06 1013.40 1013.76 1014.14 1014.54 1014.94 1015.35 1015.76 1016.16 1016.53 1016.88 1017.19 1017.46 1017.69 1017.89 1018.07 1018.25 1018.43 1018.63 1018.87 1019.13 1019.41 1019.71 1019.99 1020.24 1020.43 1020.56 1020.62
1016.80 1016.24 1015.65 1015.07 1014.50 1013.96 1013.47 1013.05 1012.71 1012.47 1012.33 1012.29 1012.34 1012.47 1012.66 1012.90 1013.19 1013.51 1013.85 1014.21 1014.58 1014.96 1015.35 1015.74 1016.10 1016.44 1016.75 1017.02 1017.26 1017.46 1017.65 1017.83 1018.01 1018.21 1018.44 1018.69 1018.96 1019.24 1019.50 1019.73 1019.92 1020.05 1020.11
1016.96 1016.36 1015.76 1015.16 1014.57 1014.02 1013.54 1013.12 1012.79 1012.55 1012.41 1012.35 1012.38 1012.47 1012.62 1012.82 1013.05 1013.32 1013.61 1013.93 1014.27 1014.62 1014.98 1015.34 1015.69 1016.03 1016.33 1016.60 1016.84 1017.04 1017.23 1017.41 1017.58 1017.77 1017.98 1018.21 1018.45 1018.69 1018.92 1019.13 1019.29 1019.41 1019.47
Thickness
5605 5612 5620 5626 5632 5640 5643 5648 5652 5657 5660 5660 5662 5662 5663 5664 5664 5666 5666 5666 5667 5667 5667 5667 5666 5666 5665 5665 5664 5661 5660 5658 5658 5655 5655 5657 5657 5657 5656 5656 5655 5653 5650
5601 5607 5614 5620 5626 5632 5637 5643 5646 5651 5654 5656 5658 5658 5658 5659 5659 5659 5660 5661 5661 5661 5662 5662 5661 5661 5660 5659 5659 5657 5654 5653 5652 5650 5648 5648 5651 5652 5650 5650 5648 5647 5644
5596 5602 5608 5612 5619 5626 5630 5636 5640 5644 5647 5650 5651 5651 5650 5650 5651 5653 5654 5656 5656 5656 5656 5656 5656 5655 5655 5654 5653 5652 5649 5647 5646 5645 5644 5642 5644 5646 5645 5643 5641 5639 5638
5591 5596 5601 5606 5613 5619 5625 5630 5634 5637 5641 5643 5644 5645 5645 5647 5650 5650 5650 5650 5650 5650 5650 5650 5650 5649 5649 5648 5647 5646 5645 5642 5640 5638 5638 5639 5640 5636 5636 5636 5635 5632 5630
5585 5590 5595 5601 5608 5614 5620 5625 5629 5630 5634 5636 5639 5640 5641 5642 5643 5643 5642 5642 5643 5643 5643 5643 5642 5642 5642 5642 5641 5639 5638 5637 5635 5633 5631 5629 5629 5629 5627 5627 5627 5625 5622
5580 5584 5589 5597 5604 5610 5613 5618 5622 5623 5627 5629 5631 5632 5633 5635 5634 5636 5636 5635 5635 5635 5636 5636 5635 5636 5635 5634 5634 5632 5631 5631 5629 5627 5626 5625 5623 5622 5620 5619 5620 5618 5616
5575 5579 5585 5592 5598 5603 5606 5610 5613 5616 5619 5622 5623 5624 5626 5627 5627 5628 5629 5629 5628 5628 5628 5628 5628 5628 5628 5627 5626 5625 5624 5622 5621 5621 5620 5618 5618 5616 5614 5612 5612 5610 5608
5569 5573 5579 5585 5591 5595 5599 5603 5606 5608 5611 5614 5614 5615 5617 5618 5619 5620 5620 5620 5620 5621 5620 5620 5619 5618 5618 5618 5617 5616 5616 5614 5613 5613 5612 5611 5609 5607 5605 5604 5602 5600 5600
5563 5568 5572 5577 5583 5587 5591 5594 5596 5598 5600 5602 5604 5606 5608 5608 5610 5611 5611 5611 5610 5611 5610 5610 5610 5609 5609 5609 5608 5607 5607 5606 5605 5604 5603 5601 5599 5597 5596 5594 5593 5591 5592
5558 5562 5566 5570 5574 5579 5582 5585 5588 5589 5592 5594 5595 5597 5598 5598 5599 5599 5599 5599 5600 5601 5600 5600 5599 5600 5600 5600 5599 5598 5598 5596 5595 5594 5593 5592 5589 5587 5585 5584 5582 5581 5580
5552 5556 5559 5562 5566 5570 5573 5577 5579 5580 5582 5584 5586 5587 5587 5588 5589 5588 5588 5587 5588 5589 5589 5589 5590 5590 5590 5590 5589 5589 5588 5587 5585 5584 5584 5581 5579 5577 5575 5572 5570 5569 5567
5545 5549 5552 5555 5559 5561 5564 5566 5568 5570 5571 5573 5575 5576 5576 5577 5577 5576 5575 5575 5577 5578 5578 5579 5579 5579 5579 5579 5580 5580 5578 5577 5576 5575 5573 5571 5568 5566 5564 5562 5559 5557 5554
5539 5542 5545 5547 5549 5551 5553 5555 5556 5558 5559 5561 5562 5563 5563 5564 5564 5564 5564 5564 5565 5566 5566 5567 5568 5568 5568 5568 5569 5569 5568 5567 5566 5564 5563 5561 5558 5556 5553 5551 5548 5546 5542
5531 5534 5536 5538 5539 5540 5542 5544 5545 5547 5548 5549 5550 5551 5550 5551 5551 5551 5552 5552 5552 5553 5553 5554 5555 5555 5555 5556 5556 5556 5556 5555 5554 5552 5551 5550 5548 5545 5543 5539 5537 5534 5531
5522 5523 5525 5527 5529 5530 5532 5533 5535 5536 5536 5537 5538 5537 5536 5537 5537 5538 5539 5539 5539 5539 5540 5540 5541 5542 5542 5543 5544 5543 5544 5543 5542 5539 5538 5537 5534 5532 5530 5528 5525 5522 5520
5513 5514 5516 5517 5518 5519 5521 5522 5523 5523 5524 5525 5524 5524 5523 5523 5523 5524 5525 5525 5525 5525 5526 5527 5528 5529 5529 5529 5530 5531 5531 5531 5529 5527 5525 5523 5521 5519 5517 5514 5512 5509 5508
5504 5505 5506 5506 5506 5507 5508 5510 5510 5511 5511 5512 5512 5511 5511 5510 5510 5510 5510 5511 5512 5512 5513 5514 5515 5517 5517 5516 5517 5517 5518 5518 5517 5515 5513 5511 5509 5506 5504 5501 5498 5496 5493
5496 5496 5496 5496 5495 5496 5497 5498 5498 5499 5499 5500 5500 5499 5498 5498 5498 5498 5498 5499 5499 5500 5501 5502 5503 5504 5504 5504 5504 5504 5504 5504 5503 5502 5501 5499 5496 5494 5492 5490 5487 5484 5481
5485 5485 5485 5484 5485 5485 5485 5486 5487 5488 5488 5488 5487 5487 5487 5487 5487 5487 5488 5487 5488 5488 5489 5489 5490 5492 5492 5491 5492 5492 5492 5491 5490 5489 5488 5487 5485 5483 5480 5478 5475 5472 5469
5476 5475 5474 5474 5474 5474 5473 5474 5475 5475 5475 5475 5474 5474 5475 5476 5477 5477 5476 5476 5476 5477 5477 5477 5479 5480 5481 5480 5480 5480 5481 5480 5478 5477 5476 5475 5473 5471 5468 5467 5465 5462 5459
5467 5465 5464 5463 5462 5461 5461 5461 5461 5461 5461 5461 5462 5463 5464 5464 5465 5465 5465 5464 5465 5465 5466 5467 5468 5469 5470 5469 5469 5469 5471 5471 5469 5467 5466 5465 5462 5460 5458 5456 5455 5452 5448
5458 5456 5454 5452 5450 5449 5448 5448 5448 5448 5448 5449 5450 5451 5451 5452 5452 5453 5453 5453 5454 5454 5455 5456 5456 5457 5458 5459 5459 5459 5460 5460 5458 5457 5456 5454 5452 5450 5448 5446 5444 5440 5437
5448 5445 5443 5441 5439 5437 5435 5435 5435 5435 5436 5438 5438 5439 5439 5440 5441 5442 5443 5443 5444 5445 5446 5446 5446 5447 5447 5448 5449 5449 5449 5448 5448 5447 5445 5444 5441 5439 5437 5435 5433 5430 5427
5437 5434 5431 5430 5428 5426 5423 5422 5422 5422 5424 5425 5426 5427 5428 5429 5430 5430 5431 5432 5434 5435 5435 5436 5437 5437 5437 5438 5439 5439 5438 5438 5437 5436 5434 5432 5430 5429 5427 5425 5423 5421 5419
5426 5422 5420 5418 5416 5414 5412 5410 5410 5410 5412 5413 5413 5414 5414 5416 5417 5418 5419 5421 5422 5424 5425 5426 5427 5428 5429 5430 5430 5430 5429 5429 5428 5425 5423 5421 5420 5419 5417 5415 5414 5412 5410
5415 5412 5409 5407 5405 5402 5400 5399 5398 5398 5398 5400 5400 5400 5401 5402 5404 5406 5408 5408 5409 5411 5412 5414 5416 5418 5419 5420 5420 5420 5420 5418 5417 5415 5415 5414 5412 5412 5411 5408 5406 5404 5402